• In Hungary
  • List of Countries
  • For 7 days
  • Water Temperature
  • Satellite Maps
  • Weather Map
  • News
  • Weather Widgets
  • user-avatar
    Login

    Hourly Weather Harpenden

    Today, 20 November, Monday

    Time Temperature Precipitation Wind Pressure Humidity
    00:00 +4°C° 0 mm 3 mps 754 mmHg 89%
    01:00 +4°C° 0 mm 4 mps 753 mmHg 89%
    02:00 +5°C° 0 mm 4 mps 752 mmHg 89%
    03:00 +6°C° 0 mm 4 mps 752 mmHg 89%
    04:00 +6°C° 0 mm 5 mps 751 mmHg 90%
    05:00 +7°C° 0 mm 5 mps 751 mmHg 92%
    06:00 +7°C° 0 mm 6 mps 750 mmHg 93%
    07:00 +8°C° 0 mm 6 mps 750 mmHg 91%
    08:00 +8°C° 0 mm 6 mps 749 mmHg 89%
    09:00 +9°C° 0 mm 7 mps 749 mmHg 87%
    10:00 +9°C° 0.1 mm 7 mps 749 mmHg 86%
    11:00 +10°C° 0.1 mm 7 mps 749 mmHg 86%
    12:00 +10°C° 0.1 mm 7 mps 749 mmHg 85%
    13:00 +10°C° 0.1 mm 7 mps 748 mmHg 86%
    14:00 +11°C° 0.1 mm 7 mps 748 mmHg 87%
    15:00 +11°C° 0.1 mm 7 mps 748 mmHg 87%
    16:00 +11°C° 0.2 mm 7 mps 748 mmHg 88%
    17:00 +11°C° 0.2 mm 6 mps 748 mmHg 89%
    18:00 +11°C° 0.2 mm 6 mps 747 mmHg 90%
    19:00 +11°C° 0.1 mm 6 mps 747 mmHg 91%
    20:00 +11°C° 0.1 mm 6 mps 748 mmHg 91%
    21:00 +12°C° 0.1 mm 5 mps 748 mmHg 92%
    22:00 +11°C° 0.3 mm 6 mps 748 mmHg 92%
    23:00 +11°C° 0.3 mm 6 mps 748 mmHg 92%

    Tomorrow, 21 November, Tuesday

    Time Temperature Precipitation Wind Pressure Humidity
    00:00 +11°C° 0.3 mm 6 mps 748 mmHg 92%
    01:00 +11°C° 0.1 mm 6 mps 747 mmHg 92%
    02:00 +11°C° 0.1 mm 6 mps 747 mmHg 91%
    03:00 +12°C° 0.1 mm 5 mps 747 mmHg 91%
    04:00 +10°C° 0 mm 5 mps 747 mmHg 91%
    05:00 +10°C° 0 mm 5 mps 747 mmHg 92%
    06:00 +10°C° 0 mm 5 mps 746 mmHg 92%
    07:00 +10°C° 0 mm 5 mps 746 mmHg 92%
    08:00 +9°C° 0 mm 5 mps 746 mmHg 92%
    09:00 +9°C° 0 mm 5 mps 746 mmHg 92%
    10:00 +10°C° 0 mm 5 mps 746 mmHg 89%
    11:00 +10°C° 0 mm 6 mps 746 mmHg 86%
    12:00 +11°C° 0 mm 6 mps 746 mmHg 83%
    13:00 +11°C° 0 mm 6 mps 745 mmHg 83%
    14:00 +11°C° 0 mm 6 mps 744 mmHg 83%
    15:00 +11°C° 0 mm 6 mps 744 mmHg 83%
    16:00 +11°C° 0 mm 7 mps 744 mmHg 83%
    17:00 +11°C° 0 mm 7 mps 743 mmHg 82%
    18:00 +11°C° 0 mm 7 mps 743 mmHg 82%
    19:00 +11°C° 0 mm 7 mps 742 mmHg 82%
    20:00 +11°C° 0 mm 8 mps 742 mmHg 82%
    21:00 +11°C° 0 mm 8 mps 742 mmHg 82%
    22:00 +11°C° 0 mm 8 mps 741 mmHg 82%
    23:00 +11°C° 0 mm 8 mps 741 mmHg 81%

    Day after tomorrow, 22 November, Wednesday

    Time Temperature Precipitation Wind Pressure Humidity
    00:00 +11°C° 0 mm 8 mps 741 mmHg 81%
    01:00 +11°C° 0 mm 8 mps 740 mmHg 82%
    02:00 +11°C° 0 mm 8 mps 740 mmHg 82%
    03:00 +11°C° 0 mm 8 mps 740 mmHg 83%
    04:00 +11°C° 0 mm 8 mps 740 mmHg 83%
    05:00 +11°C° 0 mm 8 mps 740 mmHg 82%
    06:00 +12°C° 0 mm 7 mps 739 mmHg 82%
    07:00 +12°C° 0 mm 8 mps 739 mmHg 81%
    08:00 +12°C° 0 mm 8 mps 739 mmHg 80%
    09:00 +12°C° 0 mm 8 mps 739 mmHg 78%
    10:00 +12°C° 0 mm 8 mps 739 mmHg 72%
    11:00 +13°C° 0 mm 9 mps 738 mmHg 65%
    12:00 +13°C° 0 mm 9 mps 738 mmHg 59%
    13:00 +13°C° 0 mm 9 mps 737 mmHg 58%
    14:00 +13°C° 0 mm 9 mps 736 mmHg 57%
    15:00 +13°C° 0 mm 9 mps 735 mmHg 57%
    16:00 +12°C° 0 mm 9 mps 735 mmHg 59%
    17:00 +12°C° 0 mm 10 mps 734 mmHg 61%
    18:00 +12°C° 0 mm 10 mps 734 mmHg 63%
    19:00 +12°C° 0.2 mm 10 mps 733 mmHg 68%
    20:00 +13°C° 0.2 mm 10 mps 733 mmHg 73%
    21:00 +13°C° 0.2 mm 10 mps 733 mmHg 78%
    22:00 +13°C° 0.5 mm 10 mps 732 mmHg 78%
    23:00 +12°C° 0.5 mm 10 mps 732 mmHg 79%

    23 November, Thursday

    Time Temperature Precipitation Wind Pressure Humidity
    00:00 +12°C° 0.5 mm 10 mps 732 mmHg 79%
    01:00 +12°C° 0.2 mm 9 mps 732 mmHg 80%
    02:00 +12°C° 0.2 mm 9 mps 733 mmHg 81%
    03:00 +11°C° 0.2 mm 9 mps 733 mmHg 83%
    04:00 +11°C° 0 mm 8 mps 734 mmHg 82%
    05:00 +11°C° 0 mm 8 mps 735 mmHg 81%
    06:00 +11°C° 0 mm 8 mps 736 mmHg 80%
    07:00 +11°C° 0 mm 7 mps 737 mmHg 81%
    08:00 +12°C° 0 mm 7 mps 738 mmHg 82%
    09:00 +12°C° 0 mm 7 mps 739 mmHg 82%
    10:00 +12°C° 0 mm 7 mps 739 mmHg 81%
    11:00 +12°C° 0 mm 8 mps 740 mmHg 79%
    12:00 +13°C° 0 mm 8 mps 741 mmHg 78%
    13:00 +13°C° 0 mm 8 mps 741 mmHg 78%
    14:00 +13°C° 0 mm 8 mps 741 mmHg 79%
    15:00 +13°C° 0 mm 8 mps 741 mmHg 79%
    16:00 +13°C° 0.5 mm 8 mps 740 mmHg 81%
    17:00 +13°C° 0.5 mm 8 mps 740 mmHg 82%
    18:00 +13°C° 0.5 mm 8 mps 740 mmHg 83%
    19:00 +13°C° 0.7 mm 8 mps 740 mmHg 83%
    20:00 +13°C° 0.7 mm 9 mps 740 mmHg 83%
    21:00 +13°C° 0.7 mm 9 mps 740 mmHg 83%
    22:00 +13°C° 0.3 mm 10 mps 739 mmHg 82%
    23:00 +13°C° 0.3 mm 10 mps 739 mmHg 82%

    24 November, Friday

    Time Temperature Precipitation Wind Pressure Humidity
    00:00 +13°C° 0.3 mm 11 mps 738 mmHg 81%
    01:00 +13°C° 1.2 mm 10 mps 738 mmHg 82%
    02:00 +13°C° 1.2 mm 9 mps 738 mmHg 83%
    03:00 +12°C° 1.2 mm 8 mps 738 mmHg 84%
    04:00 +12°C° 0.5 mm 7 mps 738 mmHg 84%
    05:00 +11°C° 0.5 mm 6 mps 738 mmHg 84%
    06:00 +12°C° 0.5 mm 5 mps 738 mmHg 85%
    07:00 +12°C° 0.1 mm 5 mps 739 mmHg 84%
    08:00 +10°C° 0.1 mm 5 mps 739 mmHg 84%
    09:00 +10°C° 0.1 mm 5 mps 740 mmHg 83%
    10:00 +11°C° 0.3 mm 4 mps 740 mmHg 83%
    11:00 +11°C° 0.3 mm 4 mps 740 mmHg 83%
    12:00 +11°C° 0.3 mm 3 mps 740 mmHg 83%
    13:00 +10°C° 0.9 mm 3 mps 740 mmHg 84%
    14:00 +10°C° 0.9 mm 3 mps 740 mmHg 84%
    15:00 +9°C° 0.9 mm 3 mps 740 mmHg 85%
    16:00 +9°C° 0.3 mm 2 mps 741 mmHg 84%
    17:00 +9°C° 0.3 mm 2 mps 741 mmHg 84%
    18:00 +10°C° 0.3 mm 1 mps 741 mmHg 83%
    19:00 +9°C° 0.2 mm 1 mps 741 mmHg 84%
    20:00 +9°C° 0.2 mm 1 mps 742 mmHg 84%
    21:00 +9°C° 0.2 mm 1 mps 742 mmHg 85%
    22:00 +9°C° 0.3 mm 1 mps 742 mmHg 85%
    23:00 +9°C° 0.3 mm 1 mps 742 mmHg 85%

    25 November, Saturday

    Time Temperature Precipitation Wind Pressure Humidity
    00:00 +9°C° 0.3 mm 1 mps 742 mmHg 86%
    01:00 +7°C° 0.9 mm 2 mps 742 mmHg 86%
    02:00 +7°C° 0.9 mm 2 mps 741 mmHg 87%
    03:00 +7°C° 0.9 mm 3 mps 741 mmHg 88%
    04:00 +5°C° 1.9 mm 4 mps 741 mmHg 88%
    05:00 +5°C° 1.9 mm 4 mps 741 mmHg 88%
    06:00 +5°C° 1.9 mm 5 mps 740 mmHg 88%
    07:00 +3°C° 1.7 mm 5 mps 741 mmHg 87%
    08:00 +3°C° 1.7 mm 5 mps 741 mmHg 86%
    09:00 +3°C° 1.7 mm 6 mps 741 mmHg 85%
    10:00 +3°C° 1 mm 6 mps 742 mmHg 83%
    11:00 +3°C° 1 mm 6 mps 743 mmHg 81%
    12:00 +3°C° 1 mm 6 mps 743 mmHg 79%
    13:00 +3°C° 0.4 mm 5 mps 744 mmHg 77%
    14:00 +3°C° 0.4 mm 5 mps 745 mmHg 76%
    15:00 +4°C° 0.4 mm 4 mps 746 mmHg 74%
    16:00 +3°C° 0.1 mm 4 mps 747 mmHg 75%
    17:00 +3°C° 0.1 mm 3 mps 748 mmHg 75%
    18:00 +4°C° 0.1 mm 2 mps 749 mmHg 75%
    19:00 +4°C° 0 mm 2 mps 750 mmHg 75%
    20:00 +3°C° 0 mm 2 mps 751 mmHg 74%
    21:00 +3°C° 0 mm 2 mps 751 mmHg 74%
    22:00 +3°C° 0 mm 2 mps 752 mmHg 74%
    23:00 +3°C° 0 mm 2 mps 752 mmHg 75%
    Show more